sat.trackr.live / text

‹ back to catalog

UNKNOWN

NORAD 81844

UNKNOWN UNKNOWN UNKNOWN

§ Identity

Operator
Country
Launch date
Launch site
Launch vehicle
Mass (kg)
RCS (m²)

External: N2YO · Heavens-Above

§ Orbital elements

Epoch: 2026-09-17T18:27:04.580928Z

Period
100.28 min
Inclination
82.9084°
Eccentricity
0.0058198
Mean motion
14.35923177 rev/d
Perigee alt
730.4 km
Apogee alt
813.6 km
Semi-major
7,150.1 km
B*
1.3514e-3
RAAN
53.3248°
Arg perigee
15.9084°
Mean anomaly
344.3916°
Rev number
66,289

§ Raw data

UNKNOWN1 81844U          26260.76880302  .00004012  00000+0  13514-2 0  99972 81844  82.9084  53.3248 0058198  15.9084 344.3916 14.35923177662894

JSON: /api/v1/satellites/81844 · /tle

For live sub-satellite position, see the globe view (requires WebGL).

§ Visibility from observer

Set your observer location to see the next 7 days of passes ≥ 10°. The values pass through the URL so the page stays shareable.

No JS? Fill the form by hand. The geolocation button needs JavaScript.